Content
SEND FEEDBACK

Daily
Averages
Monthly
Summary
United States of America

WOODROW, ALASKA


Home > North America > United States > Alaska
Elevation: 99 meters     Latitude: 60 07N     Longitude: 149 27W

WEATHER
 
SELECT A DAY
Number of Records: 198,358;   Date Range: 1/1/95 - 9/3/14
 
SHARE

PRINT THIS DATA

[ ← Previous Day ]
WEATHER ALMANAC - 3 JANUARY, 2013
[ Next Day → ]
[ °F ]   °C
Weather ElementAverageHighLow
Temperature1 °C2 °C (12:46 am)0.6 °C (1:53 am)
Dewpoint0.5 °C1 °C (12:46 am)0 °C (1:31 am)
Humidity96.6 %100 % (1:37 am)92 % (12:53 am)
Barometer1000.7 hPa1002 hPa (2:29 am)999.3 hPa (7:53 am)
Wind Speed3.4 km/h25.9 km/h (12:46 am)
Wind Gust31.5 km/h (12:46 am)
Weather ElementAverage
Visibility5.3 km
Wind DirectionE (88 °)

Weather ElementTotal
Precipitation55.37 mm
Heating Degree Days17.1 (Base 18.3)
Averaged from 55 records on 3 January, 2013
WEATHER CONDITIONS BREAKOUT
WIND DIRECTION BREAKOUT
WEATHER BY HOUR - 3 JANUARY, 2013
[ °F ]   °C
Local TimeTemperatureDewpointHumidityBarometerVisibilityWind DirectionWind SpeedGust SpeedPrecipitationEventsConditions
12:46 AM2 °C1 °C93 %1001.7 hPa6.4 kmSSW (210°)25.9 km/h31.5 km/h2.29 mmSnowLight Snow
12:53 AM1.7 °C0.6 °C92 %1001.7 hPa6.4 kmSSW (200°)16.7 km/h3.05 mmSnowLight Snow
1:31 AM1 °C0 °C93 %1001.7 hPa8 kmCalm1.52 mmSnowLight Snow
1:37 AM1 °C1 °C100 %1001.7 hPa4 kmNW (320°)5.6 km/h1.52 mmSnowLight Snow
1:48 AM1 °C1 °C100 %1001.7 hPa2.4 kmCalm1.52 mmSnowLight Snow
1:53 AM0.6 °C0.6 °C100 %1001.7 hPa1.9 kmCalm1.52 mmSnowLight Snow
2:18 AM1 °C0 °C93 %1001.7 hPa1.6 kmCalm0 mmSnowLight Snow
2:29 AM1 °C1 °C100 %1002 hPa1.9 kmCalm0 mmSnowLight Snow
2:37 AM1 °C0 °C93 %1001.7 hPa1.3 kmNW (320°)5.6 km/h0 mmSnowLight Snow
3:02 AM1 °C0 °C93 %1001.4 hPa4 kmNNE (20°)5.6 km/h0 mmSnowLight Snow
3:13 AM1 °C1 °C100 %1001.4 hPa2.9 kmCalm0 mmSnowLight Snow
3:40 AM1 °C0 °C93 %1001 hPa4.8 kmCalm0.25 mmSnowLight Snow
3:53 AM0.6 °C0 °C96 %1001.4 hPa6.4 kmSSE (150°)5.6 km/h0.51 mmSnowLight Snow
4:10 AM1 °C1 °C100 %1001 hPa3.2 kmCalm0.25 mmSnowLight Snow
4:17 AM1 °C1 °C100 %1001.4 hPa2.4 kmCalm0.25 mmSnowLight Snow
4:53 AM0.6 °C0.6 °C100 %1000.7 hPa1.9 kmCalm0.76 mmSnowLight Snow
5:13 AM1 °C0 °C93 %1000.7 hPa2.4 kmCalm0.25 mmSnowLight Snow
5:23 AM1 °C0 °C93 %1000.3 hPa4.8 kmSW (230°)5.6 km/h0.25 mmSnowLight Snow
5:53 AM0.6 °C0.6 °C100 %1000.3 hPa6.4 kmCalm1.02 mmSnowLight Snow
6:08 AM1 °C0 °C93 %1000 hPa8 kmCalm0.25 mmSnowLight Snow
6:53 AM0.6 °C0 °C96 %999.7 hPa8 kmNNW (330°)5.6 km/h1.27 mmRainLight Rain
7:53 AM1.7 °C0.6 °C92 %999.3 hPa9.7 kmNW (320°)16.7 km/h1.27 mmSnowLight Snow
8:53 AM1.7 °C0.6 °C92 %999.3 hPa11.3 kmNNW (330°)11.1 km/h2.54 mmRainLight Rain
9:29 AM1 °C1 °C100 %999.7 hPa4.8 kmNorth (350°)5.6 km/h2.03 mmSnowLight Snow
9:53 AM1.7 °C0.6 °C92 %999.7 hPa4.8 kmNW (310°)9.3 km/h3.3 mmSnowLight Snow
10:06 AM1 °C1 °C100 %999.7 hPa4.8 kmWNW (290°)7.4 km/h0.51 mmSnowLight Snow
10:53 AM1.7 °C0.6 °C92 %1000 hPa8 kmWNW (300°)5.6 km/h2.54 mmSnowLight Snow
11:22 AM2 °C1 °C93 %1000.3 hPa4 kmVariable5.6 km/h1.27 mmSnowLight Snow
11:38 AM1 °C1 °C100 %1000.3 hPa2.4 kmVariable5.6 km/h1.78 mmSnowLight Snow
11:53 AM0.6 °C0.6 °C100 %1000.3 hPa1.6 kmCalm2.29 mmSnowLight Snow
12:03 PM1 °C1 °C100 %1000.3 hPa1.3 kmCalm0.25 mmSnowLight Snow
12:41 PM1 °C1 °C100 %1000.7 hPa1.6 kmCalm0.76 mmSnowLight Snow
12:49 PM1 °C0 °C93 %1000.3 hPa1.3 kmSW (230°)5.6 km/h1.02 mmSnowLight Snow
12:53 PM0.6 °C0 °C96 %1000.7 hPa1.3 kmWSW (240°)5.6 km/h1.02 mmSnowLight Snow
1:01 PM1 °C0 °C93 %1000.7 hPa1.6 kmSW (220°)5.6 km/h0.25 mmSnowLight Snow
1:46 PM1 °C0 °C93 %1000.7 hPa1.9 kmCalm1.02 mmSnowLight Snow
1:53 PM0.6 °C0.6 °C100 %1000.7 hPa1.9 kmCalm1.02 mmSnowLight Snow
1:55 PM1 °C1 °C100 %1000.3 hPa1.6 kmSSE (150°)5.6 km/h0 mmSnowLight Snow
2:19 PM1 °C0 °C93 %1000.3 hPa2.4 kmSSE (160°)5.6 km/h0.51 mmSnowLight Snow
2:42 PM1 °C1 °C100 %1000.3 hPa1.6 kmCalm1.02 mmSnowLight Snow
2:53 PM0.6 °C0 °C96 %1000.3 hPa1.6 kmCalm1.27 mmSnowLight Snow
3:05 PM1 °C0 °C93 %1000.3 hPa3.2 kmCalm0.25 mmSnowLight Snow
3:19 PM1 °C1 °C100 %1000.3 hPa4 kmCalm0.76 mmSnowLight Snow
3:27 PM1 °C0 °C93 %1000.3 hPa4.8 kmCalm1.02 mmSnowLight Snow
3:42 PM1 °C1 °C100 %1000.3 hPa4 kmCalm1.27 mmSnowLight Snow
3:50 PM1 °C1 °C100 %1000.3 hPa6.4 kmCalm1.52 mmSnowLight Snow
3:53 PM0.6 °C0.6 °C100 %1000.3 hPa6.4 kmCalm1.52 mmSnowLight Snow
4:53 PM0.6 °C0.6 °C100 %1000.3 hPa12.9 kmCalm1.27 mmSnowLight Snow
5:53 PM1.1 °C0.6 °C96 %1000.3 hPa16.1 kmCalm0.76 mmRainLight Rain
6:53 PM1.1 °C0.6 °C96 %1000.7 hPa16.1 kmVariable5.6 km/h0.76 mmRainLight Rain
7:53 PM0.6 °C0 °C96 %1000.7 hPa8 kmSSE (160°)5.6 km/h1.02 mmSnowLight Snow
8:53 PM0.6 °C0.6 °C100 %1000.7 hPa11.3 kmCalm0.76 mmSnowLight Snow
9:53 PM0.6 °C0.6 °C100 %1001 hPa9.7 kmCalm0.76 mmSnowLight Snow
10:53 PM0.6 °C0 °C96 %1001.4 hPa16.1 kmCalm0.76 mmRainLight Rain
11:53 PM0.6 °C0 °C96 %1001.7 hPa9.7 kmCalm0.76 mmSnowLight Snow
Hourly data recorded from PAWD, located 0 kilometers away from Woodrow, Alaska







STORIES FROM OUR PARTNERS